Regional Weather Roundup
Issued by NWS

Home | Current Version | Previous Version | Graphics & Text | Print | Product List | Glossary On
Versions: 1 2 3 4 5 6 7 8 9 10 11 12 13 14 15 16 17 18 19 20 21 22 23 24 25 26 27 28 29 30 31 32 33 34 35 36 37 38 39 40 41 42 43 44 45 46 47 48 49 50
000
ASUS45 KBOI 141210
RWRID

IDAHO REGIONAL WEATHER ROUNDUP
NATIONAL WEATHER SERVICE BOISE ID
500 AM MST SUN FEB 14 2016

NOTE: "FAIR" INDICATES FEW OR NO CLOUDS BELOW 12000 FEET
WITH NO SIGNIFICANT WEATHER AND/OR OBSTRUCTIONS TO VISIBILITY

IDZ012-014-141300-
SOUTHWEST IDAHO


CITY           SKY/WX    TMP DP  RH WIND       PRES   REMARKS
BOISE          LGT RAIN  40  38  93 E5        30.21S
CALDWELL       RAIN      40  38  93 CALM      30.23R
MOUNTAIN HOME  LGT RAIN  37  36  93 S5        30.21F WCI  34
$$

IDZ016-017-141300-
SOUTHCENTRAL IDAHO


CITY           SKY/WX    TMP DP  RH WIND       PRES   REMARKS
BURLEY         LGT RAIN  36  34  92 SW15      30.19R WCI  27
JEROME         LGT RAIN  34  32  92 S8        30.20S WCI  27
TWIN FALLS     LGT RAIN  36  34  92 S6        30.22R WCI  31
$$

IDZ019>023-141300-
SOUTHEAST IDAHO


CITY           SKY/WX    TMP DP  RH WIND       PRES   REMARKS
IDAHO FALLS    CLOUDY    33  30  88 SW18      30.11R WCI  22
POCATELLO      CLOUDY    35  32  88 SW16      30.16S WCI  25
REXBURG        CLOUDY    31  28  89 SW10      30.10R WCI  22
$$

IDZ006-010-011-018-031-032-141300-
CENTRAL IDAHO MOUNTAINS


CITY           SKY/WX    TMP DP  RH WIND       PRES   REMARKS
MCCALL         LGT SNOW  31  30  96 CALM      30.13F VSB 1
HAILEY         CLOUDY    28  23  80 CALM      30.12F
STANLEY          N/A     28  25  88 CALM      30.13F
SALMON         CLOUDY    30  27  86 CALM      30.06S
CHALLIS        CLOUDY    31  25  78 S3        30.06F
$$

IDZ002-004-006-007-026-141300-
NORTHERN IDAHO


CITY           SKY/WX    TMP DP  RH WIND       PRES   REMARKS
LEWISTON       CLOUDY    41  38  89 CALM      30.08F
LOWELL           N/A     39  38  96 CALM      30.15F
COEUR D`ALENE  CLOUDY    39  36  87 SW15      30.02F WCI  31
MULLAN PASS    LGT SNOW  26  25  96 VRB5      29.95F FOG     WCI  20
$$



USA.gov is the U.S. government's official web portal to all federal, state and local government web resources and services.